Location: Caltech
(34.1382°N, 118.1253°W)
Time: 07:13:24
(UTC-07:00)

Cosmos 2237 Rocket - Visible Passes

Search period start: 28 June 2017 00:00
Search period end: 08 July 2017 00:00
Orbit: 836 x 849 km, 71.0° (Epoch: 27 June)

Date Brightness Start Highest point End Pass type
(mag) Time Alt. Az. Time Alt. Az. Time Alt. Az.
28 Jun 4.4 21:19:35 10° NW 21:23:42 21° W 21:27:49 10° SSW visible
29 Jun 4.3 21:04:38 10° NW 21:08:53 23° W 21:13:09 10° SSW visible
30 Jun 4.3 20:49:41 10° NW 20:54:04 24° W 20:58:27 10° SSW visible
01 Jul 4.3 20:34:44 10° NW 20:39:15 25° WSW 20:43:44 10° SSW visible
